Aérodrome :
LOGIN :

S'inscrire | Disclaimer

   EN    FR    IT 

 










Légende :    VFR   VFR Marginal   IFR   IFR Intensif   IFR Très Intensif
Visi : 
Plafond : 
>= 8 km
>= 3000ft
5 à 8 km
1000 à 3000 ft
1500m à 5 km
500 à 1000 ft
800 à 1500m
200 à 500 ft
< 800m
< 200 ft
Symboles :   Orages  Brouillard  Fortes neiges  Fortes précipitations  Vent > 20 kt
SIGMETs :   Divers  Orages  Givrage  Turbulence  Onde Orograph.  Cendres Volcan.






- Altitude de l'aérodrome : 51 ft
- Code IATA : GWT


EDXW - Westerland-Sylt Island

DERNIER METAR :
  • 301350Z 33014KT CAVOK 18/07 Q1026

METARs EXPIRÉS :
  • 301320Z 33012KT CAVOK 18/05 Q1027
  • 301250Z 32012KT CAVOK 18/05 Q1027
  • 301220Z 32011KT CAVOK 18/05 Q1027
  • 301150Z 33010KT 8000 NSC 19/06 Q1027
  • 301120Z 33009KT CAVOK 19/07 Q1027

TAF TAF EDXW
Valide du 30 à 12h jusqu'au 30 à 21h UTC


301100Z 3012/3021 34009KT CAVOK
BECMG 3019/3021 05008KT



MET'MAP, la Météo Aéronautique d'un coup d'oeil ! - Copyright ORBIFLY Décembre 2007 - Disclaimer

ORBIFLY MET'MAP TEAM :

Programmation & Développement : Alexandra Zaïnal
Sur une idée originale de : Baudouin d'Aumeries
Assistance à la programmation : Marc-Olivier Méhu
Soutien technique & logistique : Manuel Goepfert

Contact : metmap@orbifly.com




SOURCES & CREDITS :

   NOAA